Starlink 30268

operational
NORAD ID: 57531 Int'l Des: 2023-115 Owner: SPXS Country: US Constellation: starlink
LEOCIRCULAR

About Starlink 30268

Description loading...

Live Position

Loading 3D Globe...

Upcoming Passes

Altitude History

Altitude vs Time

uPlot chart will show altitude changes over time

Two-Line Element Set

1 57531U 23115L 25352.57832636 -.00000899 00000-0 -51465-4 0 9993
2 57531 43.0037 85.4411 0001524 268.3388 91.7280 15.02528284130113
Epoch: Dec 18, 2025 • Age: 13 hours

Current Status

Altitude 564.8 km
Velocity 7.58 km/s
Sub-Earth Point -25.77°S, 73.38°W
Launch Date Aug 8, 2023
Age 2.3 years
Type internet

Technical Details

Classification Payload
Mass 730.00 kg
Dry Mass 700.00 kg
Total Mass 730.00 kg
Length 0.30 m
Diameter 4.10 m
Span 29.00 m
Shape Box + pan
Manufacturer SPXS
Bus Type Starlink V2M
Phase Status In Orbit
Owner/State SPXS/US

Large Constellations

Loading constellations...